Location: Kaseke
(18.0171°S, 31.0526°E)
Time: 12:43:45
(UTC+00:00)

CREW DRAGON DEMO-1 DEB - Pass Details

Date: 14 July 2020
Orbit: 368 x 372 km, 51.6° (Epoch: 07 August)

Event Time Altitude Azimuth Distance (km) Brightness Sun altitude
Exits shadow 03:00:57 37° 358° (N) 596 3.9 -20.2°
Maximum altitude 03:01:50 54° 53° (NE) 458 3.5 -20.0°
Drops below altitude 10° 03:04:51 10° 131° (SE) 1,376 6.0 -19.3°
Sets 03:06:56 0° 136° (SE) 2,233 7.1 -18.9°
